�������l�o���
Date,Time,MP-1(��Sv/h),MP-2(��Sv/h),MP-3(��Sv/h),MP-4(��Sv/h),MP-5(��Sv/h),MP-6(��Sv/h),MP-7(��Sv/h),MP-8(��Sv/h),����,����(m/s),���J
2023/04/25,00:00,0.573,0.845,0.503,1.062,0.751,0.327,0.586,0.550,�k�k��,4.6,��
2023/04/25,00:10,0.573,0.846,0.504,1.061,0.749,0.325,0.584,0.549,�k�k��,4.5,��
2023/04/25,00:20,0.571,0.845,0.503,1.061,0.750,0.326,0.585,0.550,�k�k��,4.0,��
2023/04/25,00:30,0.573,0.844,0.503,1.061,0.748,0.326,0.584,0.550,�k�k��,5.6,��
2023/04/25,00:40,0.573,0.846,0.503,1.060,0.748,0.326,0.584,0.549,�k�k��,4.4,��
2023/04/25,00:50,0.573,0.846,0.502,1.060,0.748,0.325,0.584,0.550,�k�k��,4.2,��
2023/04/25,01:00,0.572,0.843,0.503,1.061,0.749,0.326,0.585,0.550,�k��,3.5,��
2023/04/25,01:10,0.572,0.845,0.503,1.061,0.747,0.326,0.585,0.548,�k��,3.6,��
2023/04/25,01:20,0.572,0.845,0.503,1.058,0.749,0.325,0.585,0.550,�k��,3.8,��
2023/04/25,01:30,0.572,0.844,0.502,1.059,0.748,0.327,0.585,0.550,�k��,4.6,��
2023/04/25,01:40,0.573,0.843,0.502,1.059,0.748,0.324,0.585,0.549,�k��,4.9,��
2023/04/25,01:50,0.571,0.842,0.503,1.061,0.748,0.325,0.584,0.549,�k��,5.5,��
2023/04/25,02:00,0.572,0.846,0.502,1.059,0.748,0.325,0.585,0.548,�k��,5.7,��
2023/04/25,02:10,0.572,0.845,0.502,1.060,0.749,0.326,0.584,0.550,�k��,4.8,��
2023/04/25,02:20,0.572,0.845,0.504,1.061,0.746,0.326,0.586,0.549,�k��,5.1,��
2023/04/25,02:30,0.571,0.844,0.501,1.062,0.750,0.326,0.585,0.548,�k��,4.8,��
2023/04/25,02:40,0.571,0.844,0.502,1.062,0.749,0.325,0.585,0.550,�k��,4.6,��
2023/04/25,02:50,0.571,0.843,0.502,1.058,0.746,0.326,0.584,0.549,�k��,4.1,��
2023/04/25,03:00,0.574,0.843,0.502,1.060,0.747,0.326,0.585,0.549,�k��,4.1,��
2023/04/25,03:10,0.572,0.843,0.501,1.062,0.748,0.326,0.585,0.550,�k��,4.0,��
2023/04/25,03:20,0.570,0.844,0.504,1.060,0.748,0.325,0.584,0.549,�k��,4.9,��
2023/04/25,03:30,0.571,0.843,0.501,1.060,0.748,0.326,0.585,0.548,�k��,4.8,��
2023/04/25,03:40,0.572,0.843,0.503,1.062,0.749,0.324,0.584,0.548,�k��,4.8,��
2023/04/25,03:50,0.571,0.843,0.502,1.061,0.747,0.325,0.584,0.549,�k��,4.7,��
2023/04/25,04:00,0.572,0.842,0.501,1.061,0.748,0.326,0.584,0.550,�k��,4.6,��
2023/04/25,04:10,0.573,0.843,0.502,1.059,0.748,0.326,0.585,0.549,�k��,4.9,��
2023/04/25,04:20,0.571,0.843,0.502,1.061,0.748,0.325,0.584,0.549,�k��,5.8,��
2023/04/25,04:30,0.571,0.842,0.501,1.063,0.747,0.325,0.583,0.549,�k��,5.7,��
2023/04/25,04:40,0.572,0.843,0.503,1.062,0.747,0.325,0.584,0.550,�k��,5.7,��
2023/04/25,04:50,0.571,0.843,0.501,1.062,0.746,0.325,0.583,0.549,�k��,4.9,��
2023/04/25,05:00,0.572,0.843,0.501,1.061,0.748,0.326,0.583,0.550,�k��,4.7,��
2023/04/25,05:10,0.571,0.843,0.501,1.059,0.747,0.324,0.583,0.550,�k��,4.2,��
2023/04/25,05:20,0.571,0.844,0.503,1.061,0.746,0.325,0.584,0.548,�k��,4.0,��
2023/04/25,05:30,0.572,0.844,0.502,1.060,0.747,0.326,0.583,0.549,�k��,4.5,��
2023/04/25,05:40,0.572,0.843,0.502,1.062,0.748,0.325,0.584,0.549,�k��,5.2,��
2023/04/25,05:50,0.573,0.844,0.502,1.062,0.747,0.325,0.585,0.551,�k��,4.6,��
2023/04/25,06:00,0.571,0.844,0.501,1.061,0.747,0.326,0.584,0.550,�k��,4.8,��
2023/04/25,06:10,0.571,0.843,0.502,1.059,0.747,0.325,0.585,0.550,�k��,4.7,��
2023/04/25,06:20,0.570,0.845,0.502,1.059,0.746,0.324,0.584,0.550,�k��,4.2,��
2023/04/25,06:30,0.572,0.843,0.501,1.061,0.746,0.325,0.585,0.550,�k��,4.0,��
2023/04/25,06:40,0.574,0.843,0.504,1.061,0.746,0.325,0.584,0.550,�k�k��,3.5,��
2023/04/25,06:50,0.572,0.843,0.503,1.058,0.746,0.325,0.585,0.550,�k�k��,3.6,��
2023/04/25,07:00,0.573,0.844,0.503,1.061,0.745,0.326,0.587,0.550,�k�k��,3.1,��
2023/04/25,07:10,0.571,0.845,0.501,1.063,0.747,0.325,0.585,0.551,�k�k��,3.7,��
2023/04/25,07:20,0.573,0.844,0.502,1.061,0.749,0.325,0.587,0.550,�k�k��,3.0,��
2023/04/25,07:30,0.573,0.845,0.501,1.060,0.750,0.323,0.585,0.550,�k,3.3,��
2023/04/25,07:40,0.574,0.843,0.502,1.060,0.746,0.325,0.585,0.552,�k�k��,2.0,��
2023/04/25,07:50,0.574,0.842,0.503,1.061,0.749,0.323,0.588,0.551,�k�k��,3.1,��
2023/04/25,08:00,0.573,0.839,0.504,1.060,0.748,0.324,0.586,0.551,�k�k��,3.2,��
2023/04/25,08:10,0.573,0.842,0.504,1.061,0.748,0.324,0.587,0.552,�k�k��,4.0,��
2023/04/25,08:20,0.574,0.843,0.503,1.064,0.748,0.323,0.584,0.550,�k��,3.7,��
2023/04/25,08:30,0.573,0.841,0.502,1.063,0.749,0.324,0.584,0.550,���k��,3.7,��
2023/04/25,08:40,0.575,0.841,0.503,1.061,0.748,0.324,0.583,0.551,�k��,4.3,��
2023/04/25,08:50,0.574,0.842,0.502,1.061,0.746,0.324,0.583,0.550,�k��,4.1,��
2023/04/25,09:00,0.573,0.842,0.503,1.061,0.750,0.324,0.584,0.550,�k��,3.7,��
2023/04/25,09:10,0.573,0.842,0.503,1.062,0.748,0.325,0.584,0.549,�k��,4.0,��
2023/04/25,09:20,0.571,0.842,0.503,1.062,0.748,0.325,0.583,0.549,�k��,3.6,��
2023/04/25,09:30,0.572,0.840,0.501,1.062,0.749,0.324,0.583,0.549,�k��,3.9,��
2023/04/25,09:40,0.573,0.842,0.503,1.062,0.749,0.325,0.581,0.549,���k��,3.8,��
2023/04/25,09:50,0.573,0.840,0.502,1.059,0.748,0.323,0.582,0.549,�k��,3.5,��
2023/04/25,10:00,0.571,0.840,0.503,1.061,0.748,0.324,0.583,0.549,���k��,3.2,��
2023/04/25,10:10,0.571,0.841,0.503,1.060,0.746,0.324,0.584,0.549,�k��,2.3,��
2023/04/25,10:20,0.570,0.842,0.502,1.063,0.748,0.324,0.583,0.550,���k��,2.6,��
2023/04/25,10:30,0.570,0.842,0.503,1.061,0.747,0.324,0.585,0.549,���k��,2.9,��
2023/04/25,10:40,0.572,0.842,0.503,1.062,0.747,0.325,0.584,0.549,���k��,2.6,��
2023/04/25,10:50,0.571,0.843,0.504,1.062,0.747,0.325,0.584,0.548,��,4.2,��
2023/04/25,11:00,0.571,0.844,0.503,1.063,0.747,0.325,0.585,0.549,��,3.3,��
2023/04/25,11:10,0.571,0.841,0.502,1.063,0.746,0.325,0.585,0.550,��,2.8,��
2023/04/25,11:20,0.572,0.842,0.503,1.062,0.745,0.325,0.583,0.549,��,3.5,��
2023/04/25,11:30,0.572,0.840,0.502,1.062,0.748,0.323,0.585,0.550,-,-,��
2023/04/25,11:40,0.573,0.842,0.500,1.063,0.744,0.325,0.585,0.551,-,-,-
2023/04/25,11:50,0.570,0.844,0.503,1.064,0.748,0.326,0.586,0.550,-,-,-
2023/04/25,12:00,0.573,0.846,0.502,1.060,0.748,0.324,0.586,0.549,-,-,-
2023/04/25,12:10,0.570,0.843,0.502,1.059,0.747,0.325,0.583,0.549,-,-,-
2023/04/25,12:20,0.573,0.842,0.501,1.060,0.748,0.325,0.586,0.548,-,-,-
2023/04/25,12:30,0.574,0.846,0.502,1.062,0.747,0.325,0.585,0.550,-,-,-
2023/04/25,12:40,0.573,0.846,0.500,1.062,0.748,0.325,0.586,0.549,-,-,-
2023/04/25,12:50,0.574,0.846,0.501,1.063,0.747,0.325,0.586,0.548,-,-,-
2023/04/25,13:00,0.575,0.842,0.501,1.062,0.749,0.325,0.585,0.550,-,-,-
2023/04/25,13:10,0.573,0.844,0.504,1.063,0.746,0.325,0.587,0.551,-,-,-
2023/04/25,13:20,0.573,0.842,0.501,1.062,0.747,0.326,0.586,0.549,-,-,-
2023/04/25,13:30,0.574,0.843,0.503,1.062,0.749,0.324,0.587,0.550,-,-,-
2023/04/25,13:40,0.573,0.844,0.503,1.062,0.749,0.324,0.587,0.549,-,-,-
2023/04/25,13:50,0.574,0.846,0.502,1.062,0.748,0.325,0.588,0.550,-,-,-
2023/04/25,14:00,0.574,0.843,0.502,1.063,0.746,0.324,0.587,0.551,-,-,-
2023/04/25,14:10,0.573,0.843,0.503,1.063,0.748,0.325,0.587,0.550,-,-,-
2023/04/25,14:20,0.573,0.844,0.502,1.063,0.748,0.325,0.586,0.550,-,-,-
2023/04/25,14:30,0.575,0.842,0.502,1.062,0.748,0.326,0.587,0.550,-,-,-
2023/04/25,14:40,0.575,0.842,0.503,1.066,0.748,0.325,0.588,0.549,-,-,-
2023/04/25,14:50,0.574,0.843,0.502,1.063,0.747,0.325,0.588,0.549,-,-,-
2023/04/25,15:00,0.573,0.842,0.503,1.063,0.748,0.324,0.587,0.551,-,-,-
2023/04/25,15:10,0.574,0.842,0.504,1.063,0.748,0.325,0.587,0.551,��쓌,11.3,��
2023/04/25,15:20,0.574,0.843,0.504,1.063,0.748,0.326,0.587,0.550,��쓌,9.9,��
2023/04/25,15:30,0.575,0.842,0.502,1.061,0.748,0.325,0.587,0.549,��쓌,9.5,��
2023/04/25,15:40,0.575,0.843,0.503,1.062,0.749,0.325,0.586,0.550,��쓌,11.3,��
2023/04/25,15:50,0.574,0.843,0.503,1.063,0.748,0.325,0.587,0.549,��쓌,10.2,��
2023/04/25,16:00,0.575,0.844,0.502,1.063,0.748,0.324,0.586,0.550,��쓌,10.5,��
2023/04/25,16:10,0.573,0.843,0.503,1.062,0.749,0.326,0.586,0.550,��쓌,9.7,��
2023/04/25,16:20,0.573,0.843,0.501,1.064,0.748,0.326,0.584,0.549,��,8.0,��
2023/04/25,16:30,0.574,0.844,0.501,1.064,0.749,0.325,0.584,0.550,��쓌,8.5,��
2023/04/25,16:40,0.575,0.845,0.503,1.063,0.748,0.325,0.585,0.550,��,8.0,��
2023/04/25,16:50,0.576,0.846,0.502,1.064,0.747,0.325,0.586,0.550,��쓌,8.6,��
2023/04/25,17:00,0.575,0.844,0.504,1.063,0.747,0.326,0.585,0.549,��,9.0,��
2023/04/25,17:10,0.573,0.842,0.503,1.065,0.748,0.327,0.585,0.550,��쓌,8.9,��
2023/04/25,17:20,0.575,0.846,0.504,1.063,0.749,0.326,0.586,0.551,��,7.4,��
2023/04/25,17:30,0.577,0.846,0.504,1.065,0.749,0.326,0.584,0.551,��,8.0,��
2023/04/25,17:40,0.577,0.847,0.504,1.063,0.747,0.327,0.585,0.552,��,6.3,��
2023/04/25,17:50,0.578,0.848,0.505,1.065,0.750,0.327,0.585,0.551,��,6.3,��
2023/04/25,18:00,0.576,0.848,0.505,1.061,0.749,0.328,0.585,0.553,��,6.7,��
2023/04/25,18:10,0.576,0.848,0.506,1.062,0.748,0.327,0.586,0.553,��,6.9,��
2023/04/25,18:20,0.576,0.847,0.504,1.062,0.749,0.328,0.586,0.552,��,6.9,��
2023/04/25,18:30,0.578,0.847,0.507,1.061,0.748,0.326,0.586,0.550,��,7.3,��
2023/04/25,18:40,0.578,0.847,0.505,1.063,0.751,0.327,0.584,0.552,��,6.8,��
2023/04/25,18:50,0.577,0.847,0.505,1.062,0.750,0.328,0.586,0.554,��,6.1,��
2023/04/25,19:00,0.577,0.847,0.505,1.062,0.751,0.326,0.586,0.552,��,5.9,��
2023/04/25,19:10,0.576,0.848,0.504,1.062,0.749,0.327,0.587,0.552,��,6.6,��
2023/04/25,19:20,0.577,0.848,0.504,1.065,0.749,0.326,0.584,0.553,��,7.0,��
2023/04/25,19:30,0.579,0.848,0.502,1.065,0.752,0.327,0.586,0.552,��,6.9,��
2023/04/25,19:40,0.578,0.848,0.505,1.066,0.751,0.328,0.586,0.552,��,7.1,��
2023/04/25,19:50,0.578,0.848,0.506,1.063,0.751,0.329,0.587,0.553,��,6.8,��
2023/04/25,20:00,0.576,0.847,0.505,1.065,0.750,0.327,0.586,0.553,��,7.1,��
2023/04/25,20:10,0.577,0.848,0.505,1.064,0.751,0.329,0.585,0.552,��,6.8,��
2023/04/25,20:20,0.576,0.848,0.504,1.064,0.750,0.329,0.586,0.552,��,7.0,�L
2023/04/25,20:30,0.576,0.849,0.506,1.062,0.751,0.327,0.587,0.552,��,6.8,��
2023/04/25,20:40,0.576,0.848,0.506,1.064,0.752,0.327,0.586,0.553,��,8.1,��
2023/04/25,20:50,0.577,0.849,0.505,1.064,0.749,0.329,0.586,0.552,��,9.1,�L
2023/04/25,21:00,0.577,0.849,0.506,1.063,0.750,0.327,0.587,0.552,��,8.7,�L
2023/04/25,21:10,0.578,0.848,0.504,1.064,0.751,0.328,0.587,0.551,��,8.5,��
2023/04/25,21:20,0.577,0.846,0.505,1.061,0.751,0.327,0.587,0.553,��,9.0,�L
2023/04/25,21:30,0.578,0.848,0.506,1.065,0.752,0.327,0.588,0.554,��,9.7,�L
2023/04/25,21:40,0.576,0.846,0.505,1.065,0.750,0.327,0.587,0.553,��,9.4,��
2023/04/25,21:50,0.579,0.847,0.505,1.063,0.751,0.328,0.586,0.553,��,8.6,��
2023/04/25,22:00,0.576,0.848,0.506,1.062,0.750,0.328,0.586,0.552,��,8.8,��
2023/04/25,22:10,0.578,0.848,0.505,1.062,0.751,0.328,0.587,0.553,��,8.8,��
2023/04/25,22:20,0.578,0.847,0.506,1.065,0.749,0.328,0.586,0.553,��,8.6,��
2023/04/25,22:30,0.577,0.849,0.506,1.062,0.751,0.329,0.585,0.553,��,8.2,�L
2023/04/25,22:40,0.578,0.846,0.506,1.063,0.749,0.328,0.587,0.552,��,8.6,�L
2023/04/25,22:50,0.578,0.847,0.504,1.063,0.752,0.329,0.586,0.552,��,8.8,�L
2023/04/25,23:00,0.578,0.849,0.506,1.063,0.751,0.328,0.586,0.552,��,9.1,��
2023/04/25,23:10,0.576,0.849,0.505,1.063,0.750,0.329,0.587,0.553,��,10.8,��
2023/04/25,23:20,0.577,0.846,0.506,1.062,0.750,0.329,0.587,0.552,��,9.8,��
2023/04/25,23:30,0.578,0.847,0.506,1.064,0.750,0.328,0.588,0.552,��,11.6,��
2023/04/25,23:40,0.577,0.848,0.506,1.063,0.749,0.327,0.588,0.554,��,10.2,��
2023/04/25,23:50,0.577,0.848,0.507,1.064,0.750,0.326,0.587,0.551,��쓌,12.0,��
